Portada
METAR-TAF:

METAR-TAF

Aeroports :

Grafton, Austràlia

latitud: 29-45-36S, longitud: 153-01-48E, altitud: 34 m

Observació

L'informe es va fer fa 59 minuts, a les 11:00 UTC
Vent 10 kt del Sud
Temperatura 23°C
Humitat 83%
Pressió 1013 hPa
Visibilitat 10 km o més
Núvols disperses a una alçada de 3800 ft
Núvols disperses a una alçada de 7900 ft

METAR: YGFN 281100Z AUTO 18010KT 9999 // SCT038 SCT079 23/20 Q1013

Hora: 22:59 (11:59 UTC)


TAF: manca

Observacions i pronòstics meteorològics de més de 4000 aeroports (METAR i TAF).

Les estacions disponibles són els punts grocs i vermells al mapa.

Posi el ratolí al punt desitjat per veure el nom de l'estació.

Feu clic per veure les observacions i els pronòstics meteorològics.

Per canviar el mapa: feu clic els botons verds amb una creu de color negre per apropar; al botó verd amb un guió per allunyar la imatge; o en les fletxes verdes per a mapes adjacents.


METAR-TAF: